Location: Battersea Observatory
(44.4318°N, 76.3841°W)
Time: 20:52:26
(UTC-04:00)

Tiros 1 despin weight - Pass Details

Date: 27 January 2022
Orbit: 592 x 639 km, 48.2° (Epoch: 25 May)

Event Time Altitude Azimuth Distance (km) Brightness Sun altitude
Rises 16:39:38 0° 243° (WSW) 2,859 ? 3.6°
Reaches altitude 10° 16:41:55 10° 242° (WSW) 1,965 ? 3.3°
Maximum altitude 16:46:26 82° 157° (SSE) 631 ? 2.6°
Drops below altitude 10° 16:51:03 10° 69° (ENE) 2,004 ? 1.9°
Sets 16:53:23 0° 69° (ENE) 2,921 ? 1.5°
